Syracuse, NY

1:34 PM EST on November 21, 2017 (GMT -0500)
Syracuse Hancock International

Weather History for KSYR - March, 2014

Change the Weather History Date:

Wednesday, March 12, 2014

  Actual Average Record
Temperature  
Mean Temperature 25 °F 32 °F  
Max Temperature 39 °F 41 °F 68 °F (2012)
Min Temperature 11 °F 24 °F -10 °F (1948)
Degree Days  
Heating Degree Days 40 33  
Month to date heating degree days 516 413  
Since 1 July heating degree days 5608 5244  
Cooling Degree Days 0 0  
Month to date cooling degree days 0 0  
Year to date cooling degree days 0 0  
Moisture  
Dew Point 25 °F    
Average Humidity 92    
Maximum Humidity 100    
Minimum Humidity 84    
Precipitation  
Precipitation 0.00 in 0.09 in 1.31 in (2014)
Month to date precipitation 0.19 1.05  
Year to date precipitation 5.74 5.62  
Snow  
Snow 12.10 in 0.70 in 12.40 in (1992)
Month to date snowfall 17.0 9.4  
Since 1 July snowfall 126.9 111.3  
Snow Depth 2.00 in    
Sea Level Pressure  
Sea Level Pressure 29.48 in    
Wind  
Wind Speed 11 mph (North)    
Max Wind Speed 26 mph    
Max Gust Speed 37 mph    
Visibility 2 miles    
Events Fog , Rain , Snow    
T = Trace of Precipitation, MM = Missing Value Source: NWS Daily Summary

Daily Weather History Graph

Daily Weather History Graph

Search for Another Location

Airport or City:

Trip Planner

Search our weather history database for the weather conditions in past years. The results will help you decide how hot, cold, wet, or windy it might be!

Date:

Astronomy

Mar. 12, 2014 Rise Set
Actual Time 7:21 AM EDT 7:07 PM EDT
Civil Twilight 6:53 AM EDT 7:35 PM EDT
Nautical Twilight 6:20 AM EDT 8:08 PM EDT
Astronomical Twilight 5:47 AM EDT 8:41 PM EDT
Moon 3:31 PM EDT (3/12) 4:56 AM EDT (3/12)
Length of Visible Light 12h 42m
Length of Day
11h 45m
Waxing Gibbous, 85% of the Moon is Illuminated
Mar 12
Waxing Gibbous
Mar 16
Full
Mar 23
Last Quarter
Mar 30
New
Apr 7
First Quarter

Hourly Weather History & Observations

Time (EDT) Temp. Windchill Dew Point Humidity Pressure Visibility Wind Dir Wind Speed Gust Speed Precip Events Conditions
12:54 AM 37.0 °F - 30.9 °F 79% 29.67 in 10.0 mi Calm Calm - 0.00 in Rain Light Rain
1:54 AM 39.0 °F - 32.0 °F 76% 29.67 in 10.0 mi Calm Calm - 0.00 in Rain Light Rain
2:25 AM 37.4 °F 34.9 °F 32.0 °F 81% 29.68 in 10.0 mi NNW 3.5 mph - 0.00 in Rain Light Rain
2:54 AM 37.0 °F - 35.1 °F 93% 29.68 in 7.0 mi Calm Calm - 0.02 in Rain Light Rain
3:53 AM 35.1 °F 31.0 °F 34.0 °F 96% 29.67 in 7.0 mi NNW 4.6 mph - 0.02 in Rain Light Rain
4:24 AM 35.6 °F - 35.6 °F 100% 29.66 in 6.0 mi Calm Calm - 0.03 in Rain Light Rain
4:54 AM 35.1 °F - 35.1 °F 100% 29.65 in 4.0 mi Calm Calm - 0.05 in Rain Light Rain
5:18 AM 35.6 °F - 33.8 °F 93% 29.65 in 5.0 mi Calm Calm - 0.03 in Rain Rain
5:54 AM 35.1 °F 32.2 °F 34.0 °F 96% 29.63 in 4.0 mi NE 3.5 mph - 0.04 in Rain Light Rain
6:19 AM 33.8 °F 29.6 °F 33.8 °F 100% 29.62 in 4.0 mi NE 4.6 mph - 0.00 in Rain Light Rain
6:47 AM 33.8 °F 29.6 °F 33.8 °F 100% 29.61 in 6.0 mi NNE 4.6 mph - 0.00 in Snow Light Snow
6:54 AM 34.0 °F 29.8 °F 34.0 °F 100% 29.61 in 5.0 mi NNE 4.6 mph - 0.00 in Rain Light Rain
7:25 AM 33.8 °F 29.6 °F 33.8 °F 100% 29.59 in 4.0 mi NE 4.6 mph - 0.01 in Rain Light Rain
7:54 AM 34.0 °F 28.0 °F 33.1 °F 96% 29.57 in 3.0 mi ENE 6.9 mph - 0.02 in Rain Light Rain
8:04 AM 33.8 °F 27.0 °F 33.8 °F 100% 29.57 in 3.0 mi ENE 8.1 mph - 0.00 in Rain Light Rain
8:27 AM 33.8 °F 30.8 °F 33.8 °F 100% 29.57 in 2.5 mi NNE 3.5 mph - 0.01 in Snow Light Snow
8:38 AM 33.8 °F 30.8 °F 33.8 °F 100% 29.56 in 1.5 mi NNE 3.5 mph - 0.02 in Snow Light Snow
8:45 AM 33.8 °F 30.8 °F 33.8 °F 100% 29.56 in 0.8 mi NNE 3.5 mph - 0.03 in Snow Light Snow
8:54 AM 32.0 °F 28.7 °F 32.0 °F 100% 29.57 in 0.8 mi NNE 3.5 mph - 0.05 in Snow Light Snow
9:19 AM 32.0 °F 27.5 °F 32.0 °F 100% 29.54 in 0.5 mi NNE 4.6 mph - 0.03 in Fog , Snow Snow
9:54 AM 32.0 °F 26.4 °F 32.0 °F 100% 29.55 in 0.8 mi North 5.8 mph - 0.08 in Snow Light Snow
10:54 AM 32.0 °F 24.2 °F 30.9 °F 96% 29.53 in 0.2 mi North 9.2 mph - 0.11 in Fog , Snow Heavy Snow
11:02 AM 32.0 °F 24.8 °F 32.0 °F 100% 29.52 in 0.2 mi North 8.1 mph - 0.01 in Fog , Snow Heavy Snow
11:54 AM 30.9 °F 22.8 °F 30.9 °F 100% 29.47 in 0.2 mi NNE 9.2 mph - 0.13 in Fog , Snow Heavy Snow
12:54 PM 28.9 °F 21.1 °F 28.9 °F 100% 29.42 in 0.2 mi NNE 8.1 mph - 0.14 in Fog , Snow Heavy Snow
1:07 PM 28.4 °F 18.0 °F 28.4 °F 100% 29.40 in 0.2 mi NNE 12.7 mph - 0.04 in Fog , Snow Heavy Snow
1:17 PM 28.4 °F 19.7 °F 28.4 °F 100% 29.38 in 0.2 mi NNE 9.2 mph 23.0 mph 0.06 in Fog , Snow Heavy Snow
1:54 PM 28.9 °F 19.8 °F 28.9 °F 100% 29.33 in 0.2 mi NNE 10.4 mph - 0.17 in Fog , Snow Heavy Snow
2:54 PM 28.0 °F 18.1 °F 28.0 °F 100% 29.26 in 0.2 mi North 11.5 mph - 0.15 in Fog , Snow Heavy Snow
3:34 PM 26.6 °F 13.8 °F 24.8 °F 93% 29.26 in 0.5 mi North 17.3 mph - 0.08 in Snow Snow
3:41 PM 26.6 °F 14.3 °F 24.8 °F 93% 29.25 in 0.5 mi North 16.1 mph 25.3 mph 0.08 in Snow Snow
3:54 PM 25.0 °F 12.6 °F 24.1 °F 96% 29.26 in 0.5 mi North 15.0 mph 24.2 mph 0.11 in Snow Snow
4:08 PM 24.8 °F 10.0 °F 24.8 °F 100% 29.24 in 0.2 mi North 21.9 mph 27.6 mph 0.03 in Snow Heavy Snow
4:26 PM 24.8 °F 12.9 °F 23.0 °F 93% 29.24 in 0.2 mi North 13.8 mph 24.2 mph 0.03 in Snow Heavy Snow
4:44 PM 23.0 °F 9.6 °F 21.2 °F 93% 29.26 in 0.5 mi North 16.1 mph 27.6 mph 0.17 in Snow Snow
4:54 PM 21.9 °F 8.7 °F 21.0 °F 96% 29.28 in 0.5 mi North 15.0 mph 20.7 mph 0.22 in Snow Light Snow
5:06 PM 21.2 °F 8.9 °F 19.4 °F 93% 29.29 in 0.5 mi North 12.7 mph 21.9 mph 0.00 in Snow Light Snow
5:49 PM 21.2 °F 7.8 °F 19.4 °F 93% 29.30 in 0.5 mi North 15.0 mph - 0.04 in Fog , Snow Snow
5:54 PM 21.0 °F 7.1 °F 19.9 °F 96% 29.30 in 0.2 mi North 16.1 mph - 0.04 in Snow Heavy Snow
6:06 PM 21.2 °F 7.8 °F 19.4 °F 93% 29.31 in 0.5 mi NNW 15.0 mph - 0.00 in Snow Snow
6:40 PM 19.4 °F 6.0 °F 17.6 °F 93% 29.34 in 0.5 mi North 13.8 mph - 0.01 in Snow Snow
6:54 PM 19.0 °F 5.0 °F 17.1 °F 92% 29.37 in 0.5 mi North 15.0 mph 24.2 mph 0.01 in Snow Snow
7:36 PM 17.6 °F 4.3 °F 15.8 °F 93% 29.38 in 1.2 mi NNW 12.7 mph - 0.36 in Snow Light Snow
7:54 PM 17.1 °F 1.5 °F 14.0 °F 88% 29.41 in 1.5 mi NW 17.3 mph - 0.52 in Snow Light Snow
8:05 PM 15.8 °F -0.2 °F 12.2 °F 86% 29.41 in 2.5 mi NNW 17.3 mph - 0.00 in Snow Light Snow
8:09 PM 15.8 °F 0.3 °F 12.2 °F 86% 29.42 in 4.0 mi NW 16.1 mph - 0.00 in Snow Light Snow
8:24 PM 15.8 °F 0.3 °F 12.2 °F 86% 29.44 in 8.0 mi NNW 16.1 mph - 0.00 in Snow Light Snow
8:54 PM 15.1 °F -2.5 °F 12.0 °F 88% 29.47 in 3.0 mi NNW 20.7 mph 27.6 mph 0.00 in Snow Light Snow
8:56 PM 15.8 °F -1.5 °F 12.2 °F 86% 29.46 in 2.5 mi NNW 20.7 mph 27.6 mph 0.00 in Snow Light Snow
9:54 PM 14.0 °F -2.5 °F 10.9 °F 88% 29.52 in 1.5 mi NNW 17.3 mph 25.3 mph 0.29 in Snow Light Snow
10:17 PM 14.0 °F -3.9 °F 10.4 °F 86% 29.53 in 1.5 mi NW 20.7 mph 28.8 mph 0.00 in Snow Light Snow
10:28 PM 12.2 °F -6.3 °F 10.4 °F 92% 29.54 in 1.5 mi NNW 20.7 mph 25.3 mph 0.03 in Snow Light Snow
10:54 PM 12.9 °F -6.9 °F 9.0 °F 84% 29.57 in 1.2 mi NW 25.3 mph 33.4 mph 0.04 in Snow Light Snow
11:54 PM 12.0 °F -6.9 °F 8.1 °F 84% 29.60 in 2.0 mi NNW 21.9 mph 29.9 mph 0.46 in Snow Light Snow